Terminal Aerodrome Forecast
Issued by NWS

Home | Current Version | Previous Version | Graphics & Text | Print | Product List | Glossary On
Versions: 1 2 3 4 5 6 7 8 9 10 11 12 13 14 15 16 17 18 19 20 21 22 23 24 25 26
000
FTUS43 KLSX 011100
TAFSUS
TAF
KSUS 011139Z 0112/0212 VRB03KT 2SM -FZDZSN BR OVC020
     FM011500 VRB03KT 4SM -SN BR OVC015
     FM012100 31006KT 6SM -SN OVC015
     FM020000 32006KT P6SM OVC015
     FM020300 32005KT P6SM SCT020 BKN120=

USA.gov is the U.S. government's official web portal to all federal, state and local government web resources and services.